Location: Songkhla
(7.2000°N, 100.6000°E)
Time: 02:14:05
(UTC+07:00)

BRICSAT 2 - Pass Details

Date: 23 June 2021
Orbit: 295 x 638 km, 28.5° (Epoch: 28 July)

Event Time Altitude Azimuth Distance (km) Brightness Sun altitude
Rises 10:28:35 0° 254° (WSW) 2,147 ? 58.8°
Reaches altitude 10° 10:30:50 10° 265° (W) 1,251 ? 59.2°
Maximum altitude 10:33:23 32° 331° (NNW) 565 ? 59.7°
Drops below altitude 10° 10:35:46 10° 38° (NE) 1,164 ? 60.2°
Sets 10:37:50 0° 49° (NE) 1,989 ? 60.6°
